Regional Weather Roundup
Issued by NWS New Orleans/Baton Rouge, LA

Home | Current Version | Previous Version | Text Only | Print | Product List | Glossary Off
Versions: 1 2 3 4 5 6 7 8 9 10 11 12 13 14 15 16 17 18 19 20 21 22 23 24 25 26 27 28 29 30 31 32 33 34 35 36 37 38 39 40 41 42 43 44 45 46 47 48 49 50

584
ASUS44 KLIX 211105
RWRLIX
NEW ORLEANS REGIONAL WEATHER ROUNDUP
NATIONAL WEATHER SERVICE NEW ORLEANS LA
600 AM CDT SUN SEP 21 2014

NOTE: "FAIR" INDICATES FEW OR NO CLOUDS BELOW 12,000 FEET WITH NO
      SIGNIFICANT WEATHER AND/OR OBSTRUCTIONS TO VISIBILITY.
      SKY/WX - SKY CONDITION AND SIGNIFICANT WEATHER.
      TMP - AIR TEMPERATURE.     DP    - DEWPOINT TEMPERATURE.
      RH  - RELATIVE HUMIDITY.   PRES  - PRESSURE.
      HI  - HEAT INDEX.          WCI   - WIND CHILL INDEX.

*  THESE STATIONS ARE NOT NWS OR FAA STATIONS AND ARE NOT UNDER
   NWS QUALITY CONTROL.

LAZ038-040-048-061>063-065>067-069-211200-
SOUTHEAST LOUISIANA

CITY           SKY/WX    TMP DP  RH WIND       PRES   REMARKS
N.O. AUDUBON     N/A     73  70  91 MISG        N/A
N.O. INTL ARPT CLEAR     75  68  78 NE3       29.99R
N.O. LAKEFRONT CLEAR     77  69  76 NE12      30.00R
N.O. DOWNTOWN*   N/A     75  64  69 NE3       30.00R
SLIDELL        CLEAR     66  64  93 N5        30.00R
BATON ROUGE    CLEAR     69  67  93 NE3       30.02R
BOOTHVILLE     CLEAR     80  73  79 NE5       29.98R
BELLE CHASSE   CLEAR     71  68  90 N6        29.98R
BOGALUSA*        N/A     66  63  90 CALM      30.03R
GALLIANO*      NOT AVBL
NEW ROADS*       N/A     68  68  98 CALM      30.02R FOG
GONZALES*        N/A     70  70 100 CALM      30.00R
HAMMOND*       NOT AVBL
HOUMA*         CLEAR     70  66  86 N3        29.99R
PORT FOURCHON* MOSUNNY   79  73  83 NE8       30.01R

$$

MSZ070-080>082-211200-
SOUTHERN MISSISSIPPI

CITY           SKY/WX    TMP DP  RH WIND       PRES   REMARKS
MCCOMB         CLEAR     67  64  90 CALM      30.03R
GULFPORT       CLEAR     68  65  90 N5        29.99R
BILOXI         CLEAR     70  66  87 N6        30.00R
PASCAGOULA     CLEAR     68  65  90 NE5       29.99R

$$

COASTAL OBSERVATIONS
LAKE AND NEARSHORE STATIONS

STATION/POSITION TIME  TEMP    WIND        PRES    WAVE
                       AIR SEA DIR/SP/G            HT/PER
                 (UTC) (F)     (DEG/KT/KT) (MB)    (FT/S)
PASCAGOULA       1100   73      60/ 11/ 13 1014.6
WAVELAND YACHT   1100   73      60/  9/ 11 1015.0
GRAND ISLE       1100   79 82   50/  7/ 10 1015.5
SOUTHWEST PASS   1100   80 89   50/ 10/ 12 1014.8
NEW CANAL        1100   78 80   70/ 10/ 11 1015.9
SHELL BEACH      1100   77 78   70/ 13/ 16 1015.0

OFFSHORE STATIONS

STATION/POSITION TIME  TEMP    WIND        PRES    WAVE
                       AIR SEA DIR/SP/G            HT/PER
                 (UTC) (F)     (DEG/KT/KT) (MB)    (FT/S)
64 S DAUPHIN ISL 1027   80 84   60/ 16/ 19 1014.8    3/ 6

$$




USA.gov is the U.S. government's official web portal to all federal, state and local government web resources and services.